CamptonHillsWeather.com

Find the Weather for any City, State  
or Zipcode, or Country:

Campton Hills, IL Weather
Local Radar

Local Radar

Graphs, Details
Graphs and Gauges
Detailed Weather
Detailed Reports
Ajax Version (old)
Central Kane Co Summary
Davis Current Weather Graphs
Davis 24 Hour Weather History

CW3778 Data

Weather Underground
Maps
Temperature
Heat Index
Windchill
Humidity
Radar
Dew Point
Wind
Visibility
Visible Satellite
Satellite
Fronts
Snow Depth
Jet Stream
Flight Rules
Forecast Maps
Temperature Forecast
Maximum Temperature Forecast
Minimum Temperature Forecast
Dewpoint Forecast
Prevalent Weather
12Hr Probability of Precip.
Sky Cover
Health Maps
UV Forecast
Air Quality
Peak Air Quality Index
Weather Station
Davis Instruments Vantage Pro
Current Conditions [Select Refresh to Update]

Updated: 3:18am on 9/23/14

(location)
Currently:
47.2F

Clear
Clear

High: 49.4 F< 
(12:00am
Low: 47.2 F 
(3:14am)
Wind: WNW 0 mph
Calm
Gust: 0 mph
Today's High Wind: 2 mph (1:47am)
Humidity: 93%
Pressure: 30.29 in  (Steady
Pressure Rate: 0.003 in/hr
Dew Point: 45.3F
Wind Chill: 47.2 F
Heat Index (feels like): 53.3 F
Comfort Level: Cool
Temperature Rate:  -0.46F/hr
 
5 Day Forecast
 
Tue Wed Thu Fri Sat
Clear Clear Clear Clear Clear
Partly Cloudy Clear Partly Cloudy Partly Cloudy Partly Cloudy
73 73 75 75 77
50 54 52 54 55

Records and Normals
 
Temperature Forecast Normal Record
High 73 0 0
(0)
Low 50 0 0
(0)
 
Links
 
 
Weather Advisories
No Advisories
Full Advisory Text...
Weather Map

Web Cam

Almanac
 
Sunrise:  
6:44am
Moonrise: 
6:06am

Moon Phase:
3%

Sunset: 
6:51pm
Moonset:  
6:28pm
 Star Chart...
Rainfall Totals
Hourly Rain 0.00 in
Daily Rain: 0.00 in
Monthly Rain: 3.25 in
Yearly Rain: 30.90 in
Normal Rain, month to date: 0.00 in
Normal Rain, year to date: 0.00 in
Link to Village of Campton Hills Map

Link to Counties of Illinois Map

Local Weather Exchange Network
Station ID City 
(Click for Map Location)
Neighborhood 
(Click for History)
Last Update (Date & Time) Temperature
 ()
Dew
Point ()
Humidity 
(%)
Wind 
(mph)
from the Wind Gust 
(mph) 
Pressure(in) Hourly
Rain(in)
KILGENEV5 Geneva meso_neigh1 09/23 03:09:57 49.3 46.0 87 0 SW 4 30.22 0.00
KILSTCHA10 St. Charles Hunt Club 09/23 03:09:56 44.6 44.0 97 0 North 0 29.86 0.00
KILSOUTH6 South Elgin Thornwood 09/23 02:49:25 43.2 43.0 98 0 ESE 0 30.18 0.00
KILCAMPT3 Campton Hills Campton Hills 09/23 03:10:05 46.2 46.0 100 0 West 0 30.29 0.00
KILGENEV6 Geneva Dover Ridge 09/23 03:10:11 47.1 46.0 95 0 NNW 0 30.26 0.00
KILSTCHA8 St. Charles Ronzheimer Ave. & S. Tyler Rd. 09/23 03:10:10 48.1 46.0 94 1 West 1 30.26 0.00
KILGENEV3 Geneva Mill Creek (NE) 09/23 03:10:15 42.6 41.0 95 0 NNW 0 30.32 0.00
KILSTCHA1 St Charles CamptonHillsWeather.com Central Kane County 09/23 03:10:08 47.3 45.0 93 0 WNW 0 30.29 0.00
KILELGIN13 Elgin Creek Side 09/23 03:10:09 44.6 41.0 88 0 WSW 0 29.36 0.00
KILSOUTH5 South Elgin Concord Park 09/23 03:06:29 44.4 44.0 99 0 SSW 0 30.05 0.00
KILGENEV2 Geneva Mill Creek 09/23 02:58:53 48.1 46.0 91 0 SSW 0 30.23 0.00
KILELBUR7 Elburn Cheval-De-Selle 09/23 03:04:52 43.7 43.0 98 0 ENE 0 30.21 0.00
KILBATAV1 Batavia Tri-Cities on the Fox River 09/23 03:09:59 47.9 45.0 91 0 NNW 0 30.30 0.00
KILELBUR5 Elburn Prairie Highlands 09/23 03:10:15 48.2 47.0 94 0 North 0 30.27 0.00
KILBATAV3 Batavia West Batavia 09/23 02:51:02 47.7 46.0 94 0 WNW 0 30.24 0.00
KILELBUR6 Elburn Columbine Square 09/23 03:00:27 45.7 45.0 96 0 North 0 30.23 0.00
KILBATAV5 Batavia Fermi National Accelerator Laboratory 09/23 03:02:36 52.0 46.0 80 1 South 7 30.23 0.00
KILWESTC5 West Chicago THEBROWNHOUSE.ORG 09/23 03:10:06 44.6 44.0 96 0 SSW 0 30.25 0.00
KILWESTC8 West Chicago Ingalton Hills Estates 09/23 03:10:12 47.0 46.0 97 0 SW 0 30.42 0.00
KILBARTL1 Bartlett Amber Grove KC9TVS 09/23 02:59:05 50.8 34.0 52 0 WNW 0 30.33 0.00
KILNORTH11 North Aurora Waterford Oaks 09/23 03:10:14 50.1 47.0 89 0 SSE 2 30.27 0.00
KILELGIN10 Elgin Wing Park 09/23 03:07:01 46.2 44.0 91 0 West 0 29.44 0.00
KILELGIN14 Elgin Elgin, IL 09/23 03:10:10 45.9 44.0 95 0 NW 0 30.21 0.00
KILCAROL5 Carol Stream Stonehenge Court 09/23 03:10:05 50.9 30.0 44 0 SSW 4 30.25 0.00
MUP431 West Chicago MesoWest WINFL1 IL US UPR 09/23 00:10:00 47.0 0.0 0 0 North 0 0.00 0.00
KILGILBE2 Gilberts Gilberts, IL 09/23 03:10:13 45.5 44.0 94 1 SW 1 30.47 0.00
KILELGIN11 Elgin Trout Park 09/23 01:01:52 48.9 46.0 89 0 SE 0 30.29 0.00
KILWINFI3 Winfield Fredericksburg Farm 09/23 03:10:02 44.6 43.0 95 0 SE 0 30.19 0.00
KILWINFI2 Winfield Winfield Heights (SarahNet) 09/23 03:09:23 50.9 45.0 79 0 South 0 30.27 0.00
KILSLEEP3 Sleepy Hollow SLEEPY HOLLOW 09/23 03:10:12 44.6 41.0 87 0 SSW 0 29.79 0.00
KILCAROL6 Carol Stream Merbach Ct 09/23 03:10:07 48.7 44.0 85 0 North 0 29.90 0.00
KILSLEEP2 Sleepy Hollow Sleepy Hollow Manor 09/23 02:55:27 42.6 40.0 91 0 NNW 0 30.21 0.00
KILWARRE2 Warrenville meso_neigh33 09/23 03:09:56 46.9 46.0 96 0 WNW 0 30.26 0.00
KILHANOV2 Hanover Park meso_neigh34 09/23 03:09:36 48.9 46.0 91 1 West 2 30.28 0.00
KILWHEAT8 Wheaton Wheaton Sanitary District 09/23 03:04:37 48.7 47.0 95 0 SW 0 30.27 0.00
KILWHEAT5 Wheaton N9ABF - West Wheaton 09/23 03:02:59 47.4 44.0 88 0 NW 0 30.25 0.00
KILSCHAU9 Schaumburg Schaumburg West 09/23 03:10:15 50.5 50.0 99 1 SSW 3 29.31 0.00
KILEASTD2 East Dundee Rock Road Industrial Park 09/23 03:07:17 50.0 44.0 81 3 SW 5 30.26 0.00
KILCARPE6 Carpentersville Carpentersville 09/23 03:09:50 46.6 45.0 94 0 West 0 29.40 0.00
KILWHEAT11 Wheaton Wheaton SW Orth Ct 09/23 03:10:11 50.4 45.0 82 0 North 0 30.37 0.00
Full Advisory Text
No Warnings

Ambient Weather and Weather Underground
 Never base important decisions on this or any weather information obtained from the Internet
Updated Automatically by Ambient Weather's Virtual Weather Station  V13.01